Regional Weather Roundup
Issued by NWS Kansas City/Pleasant Hill, MO

Home | Current Version | Previous Version | Graphics & Text | Print | Product List | Glossary Off
Versions: 1 2 3 4 5 6 7 8 9 10 11 12 13 14 15 16 17 18 19 20 21 22 23 24 25 26 27 28 29 30 31 32 33 34 35 36 37 38 39 40 41 42 43 44 45 46 47 48 49 50

000
ASUS43 KEAX 230311
RWREAX

WEATHER ROUNDUP FOR EASTERN KANSAS AND NORTHWEST MISSOURI
NATIONAL WEATHER SERVICE KANSAS CITY/PLEASANT HILL MO
1000 PM CDT TUE APR 22 2014

KSZ040-057-103>105-MOZ028-029-037-043-230400-
...KANSAS CITY METROPOLITAN AREA...

CITY           SKY/WX    TMP DP  RH WIND       PRES   REMARKS
K.C. INTL      CLEAR     61  32  33 E12       30.00S
K.C. DOWNTOWN  CLEAR     61  33  35 E5        30.00R
LEES SUMMIT    CLEAR     59  34  39 E6        30.01S
OLATHE - IXD   CLEAR     57  33  40 SE6       30.01R
OLATHE - OJC   CLEAR     58  31  35 SE6       30.00R
LAWRENCE       CLEAR     52  38  58 E5        30.00R

$$

MOZ001>008-011>017-020>025-030>033-038>040-044>046-053-054-230400-
...NORTHERN AND CENTRAL MISSOURI...

CITY           SKY/WX    TMP DP  RH WIND       PRES   REMARKS
ST. JOSEPH     MOCLDY    60  34  37 E6        30.00R
MOSBY          FAIR      52  39  62 CALM      30.01S
WARRENSBURG    CLEAR    N/A N/A N/A CALM      30.01F
WHITEMAN AFB   CLEAR     54  31  41 CALM      30.01S
CLINTON        CLEAR     54  37  54 CALM      30.02S
SEDALIA        PTCLDY    57  36  45 SE5       30.02S
WARSAW         NOT AVBL
MARSHALL         N/A     61  34  36 NE5       30.03R
CHILLICOTHE      N/A     52  42  69 NE3       30.04R
MOBERLY        CLEAR     54  37  54 E3        30.04R
KIRKSVILLE     CLEAR     49  33  54 CALM      30.04R

$$

MOZ041-047>049-056>058-063>065-088>090-097-230400-
...EASTERN AND SOUTHERN MISSOURI...

CITY           SKY/WX    TMP DP  RH WIND       PRES   REMARKS
ST. LOUIS INTL CLEAR     59  36  42 NW3       30.02R
SPIRIT OF STL  CLEAR     50  40  68 CALM      30.02R
COLUMBIA       CLEAR     55  35  47 NE7       30.02R
JEFFERSON CITY CLEAR     60  33  36 N5        30.02R
MEXICO         CLEAR     52  36  54 N5        30.03R
HANNIBAL       CLEAR     55  27  33 N3        30.04R
ROLLA          CLEAR     52  34  50 CALM      30.01R
LEBANON        CLEAR     55  32  41 NE6       30.02S
OSAGE BEACH    CLEAR     54  34  47 NE5       30.04R
SPRINGFIELD    CLEAR     56  38  50 N5        30.00R
BRANSON        CLEAR     59  37  44 CALM      30.01R
NEVADA         CLEAR     54  39  58 E6        30.02R
JOPLIN         CLEAR     52  42  69 NE3       30.01R
WEST PLAINS    CLEAR     58  31  35 N5        30.00R

$$

IAZ060-094-KSZ022-034>040-054-083-096-NEZ052-066-093-230400-
...KANSAS...SOUTHEAST NEBRASKA AND IOWA...

CITY           SKY/WX    TMP DP  RH WIND       PRES   REMARKS
TOPEKA         CLEAR     61  34  36 E3        29.99R
MANHATTAN      CLEAR     57  33  40 CALM      29.97R
EMPORIA        PTCLDY    56  35  45 SE7       29.97R
CHANUTE        PTCLDY    57  37  47 E7        29.99R
WICHITA        CLOUDY    63  32  31 SE8       29.96R
OMAHA          CLOUDY    63  33  32 E12       29.98R
LINCOLN        PTCLDY    65  31  28 SE13      29.96S
FALLS CITY     MOCLDY    58  36  43 E7        29.98R
LAMONI         PTCLDY    57  31  37 E5        30.03R
DES MOINES     MOCLDY    59  32  36 E8        30.05R

$$




USA.gov is the U.S. government's official web portal to all federal, state and local government web resources and services.